Location: Carson
(33.8314°N, 118.2820°W)
Time: 14:05:31
(UTC+00:00)

ATLAS 2AS CENTAUR R/B - Pass Details

Date: 23 November 2020
Orbit: 943 x 1268 km, 63.7° (Epoch: 16 January)

Event Time Altitude Azimuth Distance (km) Brightness Sun altitude
Rises 13:52:53 0° 226° (SW) 4,157 5.5 -8.6°
Reaches altitude 10° 13:55:45 10° 232° (SW) 3,218 4.9 -8.1°
Maximum altitude 14:03:18 50° 306° (NW) 1,576 3.2 -6.6°
Drops below altitude 10° 14:10:57 10° 20° (NNE) 3,240 5.2 -5.1°
Sets 14:13:51 0° 26° (NNE) 4,188 5.9 -4.6°
